• en France
  • Liste des pays
  • À 7 jours
  • Température de l'eau
  • Carte satellitaire
  • Carte météo
  • Widgets météo
  • user-avatar
    Se connecter

    Météo par heure à Kuznecy

    Ce jour, 18 Juillet, Mercredi

    Heure Température Précipitation Vent Pression Humidité
    00:00 +20°C° 0 mm 3 m/s 745 mmHg 73%
    01:00 +19°C° 0 mm 3 m/s 745 mmHg 75%
    02:00 +19°C° 0 mm 3 m/s 745 mmHg 79%
    03:00 +19°C° 0 mm 3 m/s 745 mmHg 80%
    04:00 +19°C° 0 mm 3 m/s 745 mmHg 81%
    05:00 +19°C° 0 mm 3 m/s 745 mmHg 82%
    06:00 +20°C° 0 mm 3 m/s 745 mmHg 77%
    07:00 +22°C° 0 mm 3 m/s 745 mmHg 72%
    08:00 +23°C° 0 mm 4 m/s 745 mmHg 67%
    09:00 +25°C° 0 mm 4 m/s 745 mmHg 60%
    10:00 +27°C° 0 mm 5 m/s 745 mmHg 53%
    11:00 +28°C° 0 mm 5 m/s 744 mmHg 46%
    12:00 +28°C° 0 mm 5 m/s 744 mmHg 46%
    13:00 +29°C° 0 mm 5 m/s 744 mmHg 45%
    14:00 +29°C° 0 mm 5 m/s 744 mmHg 44%
    15:00 +29°C° 0,3 mm 5 m/s 744 mmHg 48%
    16:00 +28°C° 0,3 mm 4 m/s 744 mmHg 52%
    17:00 +28°C° 0,3 mm 4 m/s 744 mmHg 56%
    18:00 +26°C° 0,1 mm 3 m/s 744 mmHg 64%
    19:00 +24°C° 0,1 mm 3 m/s 744 mmHg 71%
    20:00 +23°C° 0,1 mm 2 m/s 744 mmHg 78%
    21:00 +21°C° 0,6 mm 2 m/s 744 mmHg 82%
    22:00 +20°C° 0,6 mm 2 m/s 744 mmHg 87%
    23:00 +20°C° 0,6 mm 1 m/s 744 mmHg 91%

    Demain, 19 Juillet, Jeudi

    Heure Température Précipitation Vent Pression Humidité
    00:00 +19°C° 0,6 mm 2 m/s 744 mmHg 92%
    01:00 +18°C° 0,6 mm 2 m/s 744 mmHg 94%
    02:00 +18°C° 0,6 mm 2 m/s 744 mmHg 96%
    03:00 +18°C° 0,1 mm 3 m/s 744 mmHg 95%
    04:00 +18°C° 0,1 mm 3 m/s 744 mmHg 95%
    05:00 +18°C° 0,1 mm 3 m/s 744 mmHg 95%
    06:00 +18°C° 0,3 mm 3 m/s 744 mmHg 94%
    07:00 +19°C° 0,3 mm 3 m/s 744 mmHg 93%
    08:00 +19°C° 0,3 mm 3 m/s 744 mmHg 92%
    09:00 +21°C° 0,1 mm 3 m/s 744 mmHg 86%
    10:00 +22°C° 0,1 mm 4 m/s 744 mmHg 80%
    11:00 +25°C° 0,1 mm 4 m/s 744 mmHg 74%
    12:00 +25°C° 0,8 mm 4 m/s 744 mmHg 77%
    13:00 +25°C° 0,8 mm 4 m/s 744 mmHg 80%
    14:00 +25°C° 0,8 mm 3 m/s 743 mmHg 84%
    15:00 +25°C° 0,7 mm 3 m/s 743 mmHg 83%
    16:00 +25°C° 0,7 mm 3 m/s 743 mmHg 82%
    17:00 +25°C° 0,7 mm 3 m/s 743 mmHg 82%
    18:00 +24°C° 0,6 mm 3 m/s 743 mmHg 85%
    19:00 +22°C° 0,6 mm 3 m/s 743 mmHg 88%
    20:00 +21°C° 0,6 mm 2 m/s 743 mmHg 91%
    21:00 +20°C° 0,1 mm 2 m/s 743 mmHg 92%
    22:00 +19°C° 0,1 mm 2 m/s 743 mmHg 93%
    23:00 +18°C° 0,1 mm 2 m/s 743 mmHg 94%

    Après-demain, 20 Juillet, Vendredi

    Heure Température Précipitation Vent Pression Humidité
    00:00 +18°C° 0 mm 2 m/s 743 mmHg 95%
    01:00 +18°C° 0 mm 2 m/s 743 mmHg 95%
    02:00 +18°C° 0 mm 2 m/s 743 mmHg 96%
    03:00 +18°C° 0 mm 2 m/s 743 mmHg 96%
    04:00 +18°C° 0 mm 2 m/s 743 mmHg 95%
    05:00 +17°C° 0 mm 2 m/s 743 mmHg 95%
    06:00 +19°C° 0 mm 2 m/s 743 mmHg 92%
    07:00 +20°C° 0 mm 3 m/s 743 mmHg 88%
    08:00 +21°C° 0 mm 3 m/s 743 mmHg 85%
    09:00 +21°C° 0,1 mm 3 m/s 743 mmHg 85%
    10:00 +21°C° 0,1 mm 3 m/s 743 mmHg 85%
    11:00 +21°C° 0,1 mm 3 m/s 743 mmHg 85%
    12:00 +22°C° 0,1 mm 3 m/s 743 mmHg 81%
    13:00 +24°C° 0,1 mm 3 m/s 742 mmHg 77%
    14:00 +25°C° 0,1 mm 3 m/s 742 mmHg 73%
    15:00 +25°C° 0,1 mm 3 m/s 742 mmHg 73%
    16:00 +25°C° 0,1 mm 3 m/s 742 mmHg 72%
    17:00 +25°C° 0,1 mm 3 m/s 742 mmHg 71%
    18:00 +24°C° 0,1 mm 2 m/s 742 mmHg 77%
    19:00 +23°C° 0,1 mm 2 m/s 742 mmHg 84%
    20:00 +22°C° 0,1 mm 1 m/s 742 mmHg 90%
    21:00 +21°C° 0 mm 1 m/s 742 mmHg 92%
    22:00 +20°C° 0 mm 1 m/s 742 mmHg 93%
    23:00 +20°C° 0 mm 1 m/s 742 mmHg 95%

    21 Juillet, Samedi

    Heure Température Précipitation Vent Pression Humidité
    00:00 +19°C° 0 mm 1 m/s 742 mmHg 95%
    01:00 +19°C° 0 mm 1 m/s 742 mmHg 96%
    02:00 +19°C° 0 mm 1 m/s 742 mmHg 96%
    03:00 +19°C° 0 mm 1 m/s 742 mmHg 96%
    04:00 +19°C° 0 mm 1 m/s 742 mmHg 96%
    05:00 +17°C° 0 mm 0 m/s 742 mmHg 96%
    06:00 +18°C° 0,1 mm 0 m/s 742 mmHg 94%
    07:00 +19°C° 0,1 mm 0 m/s 742 mmHg 91%
    08:00 +20°C° 0,1 mm 0 m/s 742 mmHg 89%
    09:00 +21°C° 0,1 mm 0 m/s 742 mmHg 85%
    10:00 +22°C° 0,1 mm 0 m/s 742 mmHg 80%
    11:00 +25°C° 0,1 mm 1 m/s 742 mmHg 75%
    12:00 +26°C° 0,1 mm 1 m/s 742 mmHg 71%
    13:00 +27°C° 0,1 mm 1 m/s 741 mmHg 67%
    14:00 +28°C° 0,1 mm 1 m/s 741 mmHg 62%
    15:00 +28°C° 0 mm 1 m/s 741 mmHg 62%
    16:00 +28°C° 0 mm 1 m/s 741 mmHg 61%
    17:00 +28°C° 0 mm 1 m/s 741 mmHg 61%
    18:00 +26°C° 0,1 mm 1 m/s 741 mmHg 68%
    19:00 +25°C° 0,1 mm 1 m/s 741 mmHg 75%
    20:00 +23°C° 0,1 mm 1 m/s 741 mmHg 82%
    21:00 +20°C° 0 mm 0 m/s 741 mmHg 85%
    22:00 +19°C° 0 mm 0 m/s 741 mmHg 89%
    23:00 +18°C° 0 mm 0 m/s 741 mmHg 92%

    22 Juillet, Dimanche

    Heure Température Précipitation Vent Pression Humidité
    00:00 +18°C° 0 mm 0 m/s 741 mmHg 93%
    01:00 +18°C° 0 mm 0 m/s 741 mmHg 93%
    02:00 +17°C° 0 mm 0 m/s 741 mmHg 94%
    03:00 +19°C° 0 mm 1 m/s 741 mmHg 94%
    04:00 +20°C° 0 mm 1 m/s 741 mmHg 94%
    05:00 +20°C° 0 mm 1 m/s 741 mmHg 94%
    06:00 +21°C° 0 mm 1 m/s 742 mmHg 88%
    07:00 +23°C° 0 mm 1 m/s 742 mmHg 81%
    08:00 +25°C° 0 mm 1 m/s 742 mmHg 75%
    09:00 +26°C° 0 mm 1 m/s 741 mmHg 70%
    10:00 +27°C° 0 mm 1 m/s 741 mmHg 66%
    11:00 +28°C° 0 mm 1 m/s 741 mmHg 61%
    12:00 +28°C° 0,2 mm 1 m/s 741 mmHg 62%
    13:00 +28°C° 0,2 mm 1 m/s 741 mmHg 62%
    14:00 +28°C° 0,2 mm 1 m/s 741 mmHg 62%
    15:00 +28°C° 0,6 mm 1 m/s 741 mmHg 65%
    16:00 +28°C° 0,6 mm 2 m/s 741 mmHg 69%
    17:00 +28°C° 0,6 mm 2 m/s 741 mmHg 72%
    18:00 +26°C° 0,5 mm 2 m/s 741 mmHg 78%
    19:00 +25°C° 0,5 mm 1 m/s 741 mmHg 83%
    20:00 +23°C° 0,5 mm 1 m/s 741 mmHg 88%
    21:00 +23°C° 0,1 mm 1 m/s 741 mmHg 91%
    22:00 +22°C° 0,1 mm 1 m/s 741 mmHg 93%
    23:00 +21°C° 0,1 mm 1 m/s 742 mmHg 95%

    23 Juillet, Lundi

    Heure Température Précipitation Vent Pression Humidité
    00:00 +20°C° 0 mm 2 m/s 742 mmHg 96%
    01:00 +19°C° 0 mm 2 m/s 742 mmHg 96%
    02:00 +19°C° 0 mm 2 m/s 742 mmHg 97%
    03:00 +19°C° 0,2 mm 2 m/s 742 mmHg 97%
    04:00 +19°C° 0,2 mm 2 m/s 742 mmHg 96%
    05:00 +19°C° 0,2 mm 2 m/s 742 mmHg 96%
    06:00 +20°C° 0,2 mm 2 m/s 742 mmHg 92%
    07:00 +21°C° 0,2 mm 2 m/s 742 mmHg 89%
    08:00 +23°C° 0,2 mm 2 m/s 742 mmHg 85%
    09:00 +24°C° 0,4 mm 2 m/s 742 mmHg 81%
    10:00 +26°C° 0,4 mm 3 m/s 742 mmHg 77%
    11:00 +27°C° 0,4 mm 3 m/s 742 mmHg 73%
    12:00 +27°C° 0,8 mm 3 m/s 742 mmHg 76%
    13:00 +27°C° 0,8 mm 3 m/s 742 mmHg 78%
    14:00 +26°C° 0,8 mm 3 m/s 742 mmHg 80%
    15:00 +26°C° 0,5 mm 3 m/s 742 mmHg 80%
    16:00 +26°C° 0,5 mm 3 m/s 742 mmHg 81%
    17:00 +26°C° 0,5 mm 3 m/s 742 mmHg 82%
    18:00 +25°C° 0,8 mm 3 m/s 742 mmHg 86%
    19:00 +23°C° 0,8 mm 2 m/s 742 mmHg 90%
    20:00 +21°C° 0,8 mm 2 m/s 742 mmHg 94%
    21:00 +21°C° 0,7 mm 2 m/s 742 mmHg 95%
    22:00 +20°C° 0,7 mm 2 m/s 742 mmHg 96%
    23:00 +20°C° 0,7 mm 2 m/s 742 mmHg 97%
    Voir plus